Regional Weather Roundup
Issued by NWS

Home | Current Version | Previous Version | Graphics & Text | Print | Product List | Glossary On
Versions: 1 2 3 4 5 6 7 8 9 10 11 12 13 14 15 16 17 18 19 20 21 22 23 24 25 26 27 28 29 30 31 32 33 34 35 36 37 38 39 40 41 42 43 44 45 46 47 48 49 50
000
ASUS43 KOAX 010010
RWRNE

WEATHER ROUNDUP FOR NEBRASKA
NATIONAL WEATHER SERVICE OMAHA NE
600 PM CST SAT FEB 28 2015

NOTES: SATELLITE DATA IS BEING USED TO AUGMENT CLOUD COVER ABOVE
       12000 FEET.
       "FAIR" INDICATES FEW OR NO CLOUDS BELOW 12,000 FEET WITH NO
       SIGNIFICANT WEATHER AND/OR OBSTRUCTIONS TO VISIBILITY.

  * THESE STATIONS DO NOT REPORT WEATHER SUCH AS RAIN...SNOW OR FOG.

NEZ001>004-019>022-054>056-010100-
NEBRASKA PANHANDLE

CITY           SKY/WX    TMP DP  RH WIND       PRES   REMARKS
SCOTTSBLUFF    PTCLDY    31  10  41 E9        30.02R WCI  23
6HR MIN TEMP:  24; 6HR MAX TEMP:  34;

ALLIANCE       CLEAR     29   9  43 NE7       30.02R WCI  22
6HR MIN TEMP:  23; 6HR MAX TEMP:  32;

CHADRON        CLEAR     29  13  51 S5        30.07S WCI  24
6HR MIN TEMP:  23; 6HR MAX TEMP:  29;

KIMBALL        MOCLDY    25  14  64 E5        29.96R WCI  19
SIDNEY         PTCLDY    26  12  55 E6        30.01R WCI  19
6HR MIN TEMP:  18; 6HR MAX TEMP:  28;

$$

NEZ057>060-069>072-079>082-010100-
SOUTHWEST NEBRASKA

CITY           SKY/WX    TMP DP  RH WIND       PRES   REMARKS
NORTH PLATTE   PTCLDY    26  10  50 S8        30.13R WCI  18
6HR MIN TEMP:  22; 6HR MAX TEMP:  30;

IMPERIAL         N/A     23   9  55 S10       30.08F WCI  12
6HR MIN TEMP:  20; 6HR MAX TEMP:  27;

LEXINGTON      CLOUDY    25  13  60 S12       30.19R WCI  14
MCCOOK         CLOUDY    26  12  55 S9        30.16S WCI  17
6HR MIN TEMP:  24; 6HR MAX TEMP:  28;

OGALLALA       CLEAR     28  11  49 SE7       30.08S WCI  21
$$

NEZ005>010-023>029-035>040-094-010100-
NORTH CENTRAL NEBRASKA

CITY           SKY/WX    TMP DP  RH WIND       PRES   REMARKS
VALENTINE      CLEAR     31   8  38 NW8       30.11S WCI  23
6HR MIN TEMP:  26; 6HR MAX TEMP:  34;

AINSWORTH      CLEAR     31  10  41 CALM      30.11R
BROKEN BOW     CLEAR     27  11  51 S8        30.15R WCI  19
6HR MIN TEMP:  24; 6HR MAX TEMP:  31;

O`NEILL        CLEAR     31  12  44 S5        30.16R WCI  26
ORD            CLEAR     28   8  43 S9        30.17S WCI  19
6HR MIN TEMP:  23; 6HR MAX TEMP:  31;

THEDFORD       CLEAR     31  12  44 CALM      30.10S
$$

NEZ041-046>049-061>064-073>077-083>087-010100-
SOUTH CENTRAL NEBRASKA

CITY           SKY/WX    TMP DP  RH WIND       PRES   REMARKS
GRAND ISLAND   CLOUDY    22  12  65 S10       30.25S WCI  11
6HR MIN TEMP:  20; 6HR MAX TEMP:  26;

AURORA         CLOUDY    22  13  69 S9        30.26R WCI  12
HASTINGS       CLOUDY    20  12  71 S7        30.24R WCI  11
6HR MIN TEMP:  18; 6HR MAX TEMP:  22; 6HR PCP: TRACE;

HEBRON         MOCLDY    20  14  78 S7        30.31R WCI  11
HOLDREGE       CLOUDY    22  13  69 S8        30.21R WCI  12
KEARNEY *      CLOUDY    21  10  63 S12       30.23R WCI   9
YORK           PTCLDY    21  16  79 S12       30.28R WCI   9
$$

NEZ011>018-030>034-042>045-010100-
NORTHEAST NEBRASKA

CITY           SKY/WX    TMP DP  RH WIND       PRES   REMARKS
NORFOLK        CLEAR     24  13  62 S14       30.23S WCI  12
6HR MIN TEMP:  21; 6HR MAX TEMP:  30;

ALBION         CLEAR     26  10  52 S10       30.22R WCI  15
BLAIR          CLOUDY    23  17  77 S9        30.31S WCI  13
COLUMBUS *     CLOUDY    23   9  54 S10G17    30.29S WCI  12
FREMONT        CLOUDY    24  17  74 S10       30.31S WCI  13
WAYNE          CLEAR     24  13  61 S14       30.26S WCI  12
$$

NEZ050>053-065>068-078-088>093-010100-
SOUTHEAST NEBRASKA

CITY           SKY/WX    TMP DP  RH WIND       PRES   REMARKS
LINCOLN        CLOUDY    23  16  74 S10       30.33S WCI  12
6HR MIN TEMP:  20; 6HR MAX TEMP:  24; 6HR PCP:  0.02;

OMAHA EPPLEY   LGT SNOW  23  16  74 S12       30.35F FOG     WCI  12
6HR MIN TEMP:  21; 6HR MAX TEMP:  23; 6HR PCP: TRACE;

BEATRICE       CLOUDY    22  16  78 S7        30.33R WCI  13
FALLS CITY     CLOUDY    23  17  78 SE8       30.37S WCI  14
6HR MIN TEMP:  21; 6HR MAX TEMP:  24; 6HR PCP: TRACE;

NEBRASKA CITY  CLOUDY    22  17  78 S8        30.34S WCI  13
PLATTSMOUTH    CLOUDY    22  17  80 S6        30.34R WCI  15
$$

NEZ044-045-051>053-067-010100-
OMAHA AREA

CITY           SKY/WX    TMP DP  RH WIND       PRES   REMARKS
OMAHA EPPLEY   LGT SNOW  23  16  74 S12       30.35F FOG     WCI  12
6HR MIN TEMP:  21; 6HR MAX TEMP:  23; 6HR PCP: TRACE;

BLAIR          CLOUDY    23  17  77 S9        30.31S WCI  13
FREMONT        CLOUDY    24  17  74 S10       30.31S WCI  13
MILLARD        FLURRIES  24  18  77 SE8       30.34S WCI  15
OFFUTT AFB     FLURRIES  23  16  74 SE8       30.34S WCI  14
PLATTSMOUTH    CLOUDY    22  17  80 S6        30.34R WCI  15
WAHOO          CLOUDY    23  16  73 S10       30.32S WCI  13
$$



USA.gov is the U.S. government's official web portal to all federal, state and local government web resources and services.